Weather History for Jefferson, GA

Change the Weather History Date:

Wednesday, November 14, 2012

  Actual Average (KGVL) Record (KGVL)
Temperature  
Mean Temperature 44 °F 53 °F  
Max Temperature 51 °F 63 °F 79 °F (1931)
Min Temperature 37 °F 44 °F 23 °F (1941)
Degree Days  
Heating Degree Days 21 12  
Month to date heating degree days 141  
Since 1 July heating degree days 299  
Moisture  
Dew Point 24 °F    
Average Humidity 48    
Maximum Humidity 93    
Minimum Humidity 28    
Precipitation  
Precipitation 0.00 in 0.13 in 1.34 in (1998)
Month to date precipitation 1.68  
Year to date precipitation 46.69  
Sea Level Pressure  
Sea Level Pressure 30.34 in    
Wind  
Wind Speed 2 mph ()    
Max Wind Speed 9 mph    
Max Gust Speed 20 mph    
Visibility 9.4 miles    
Events Rain    
T = Trace of Precipitation, MM = Missing Value Source: Averaged Metar Reports

Daily Weather History Graph

Daily Weather History Graph

Search for Another Location

Airport:

Trip Planner

Search our weather history database for the weather conditions in past years. The results will help you decide how hot, cold, wet, or windy it might be!

Date:

Astronomy

Nov. 14, 2012 Rise Set
Actual Time 7:06 AM EST 5:30 PM EST
Civil Twilight 6:39 AM EST 5:57 PM EST
Nautical Twilight 6:09 AM EST 6:27 PM EST
Astronomical Twilight 5:40 AM EST 6:57 PM EST
Moon 7:52 AM EST (11/14) 6:20 PM EST (11/14)
Length of Visible Light 11h 17m
Length of Day
10h 23m
New Moon, 1% of the Moon is Illuminated
Nov 14
New Moon
Nov 20
First Quarter
Nov 28
Full
Dec 6
Last Quarter
Dec 13
New

Hourly Weather History & Observations

Time (EST) Temp. Windchill Dew Point Humidity Pressure Visibility Wind Dir Wind Speed Gust Speed Precip Events Conditions
12:15 AM 42.8 °F 41.1 °F 28.4 °F 57% 30.33 in 10.0 mi ENE 3.5 mph - N/A   Clear
12:35 AM 42.8 °F 41.1 °F 28.4 °F 57% 30.33 in 10.0 mi East 3.5 mph - N/A   Clear
12:55 AM 42.8 °F - 28.4 °F 57% 30.33 in 10.0 mi Calm Calm - N/A   Clear
1:15 AM 41.0 °F - 28.4 °F 61% 30.33 in 10.0 mi Calm Calm - N/A   Clear
1:35 AM 41.0 °F 39.0 °F 26.6 °F 57% 30.33 in 10.0 mi ENE 3.5 mph - N/A   Clear
1:55 AM 41.0 °F - 26.6 °F 57% 30.33 in 10.0 mi Calm Calm - N/A   Clear
2:15 AM 41.0 °F - 26.6 °F 57% 30.33 in 10.0 mi Calm Calm - N/A   Clear
2:35 AM 41.0 °F - 26.6 °F 57% 30.33 in 10.0 mi Calm Calm - N/A   Clear
2:55 AM 39.2 °F - 26.6 °F 61% 30.34 in 10.0 mi Calm Calm - N/A   Clear
3:15 AM 37.4 °F - 26.6 °F 65% 30.34 in 10.0 mi Calm Calm - N/A   Clear
3:35 AM 37.4 °F - 26.6 °F 65% 30.34 in 10.0 mi Calm Calm - N/A   Clear
3:55 AM 37.4 °F - 26.6 °F 65% 30.34 in 10.0 mi Calm Calm - N/A   Clear
4:15 AM 37.4 °F - 24.8 °F 60% 30.34 in 10.0 mi Calm Calm - N/A   Clear
4:35 AM 37.4 °F - 23.0 °F 56% 30.35 in 10.0 mi Calm Calm - N/A   Clear
4:55 AM 37.4 °F - 23.0 °F 56% 30.36 in 10.0 mi Calm Calm - N/A   Clear
5:15 AM 37.4 °F - 23.0 °F 56% 30.36 in 10.0 mi Calm Calm - N/A   Clear
5:35 AM 37.4 °F 34.9 °F 23.0 °F 56% 30.36 in 10.0 mi ENE 3.5 mph - N/A   Clear
5:55 AM 37.4 °F 34.9 °F 23.0 °F 56% 30.36 in 10.0 mi ENE 3.5 mph - N/A   Clear
6:15 AM 37.4 °F - 21.2 °F 52% 30.37 in 10.0 mi Calm Calm - N/A   Clear
6:35 AM 37.4 °F - 23.0 °F 56% 30.38 in 10.0 mi Calm Calm - N/A   Clear
6:55 AM 37.4 °F - 23.0 °F 56% 30.38 in 10.0 mi Calm Calm - N/A   Clear
7:15 AM 37.4 °F - 23.0 °F 56% 30.39 in 10.0 mi Calm Calm - N/A   Clear
7:35 AM 37.4 °F - 24.8 °F 60% 30.40 in 10.0 mi Calm Calm - N/A   Clear
7:55 AM 37.4 °F 33.8 °F 24.8 °F 60% 30.40 in 10.0 mi ENE 4.6 mph - N/A   Clear
8:15 AM 39.2 °F 35.9 °F 24.8 °F 56% 30.40 in 10.0 mi ENE 4.6 mph - N/A   Clear
8:35 AM 41.0 °F 37.1 °F 24.8 °F 53% 30.41 in 10.0 mi East 5.8 mph - N/A   Clear
8:55 AM 41.0 °F 38.0 °F 24.8 °F 53% 30.41 in 10.0 mi ENE 4.6 mph - N/A   Clear
9:15 AM 42.8 °F 40.1 °F 23.0 °F 46% 30.42 in 10.0 mi ENE 4.6 mph - N/A   Mostly Cloudy
9:35 AM 42.8 °F 38.0 °F 23.0 °F 46% 30.42 in 10.0 mi East 8.1 mph - N/A   Overcast
9:55 AM 44.6 °F 40.2 °F 23.0 °F 43% 30.41 in 10.0 mi East 8.1 mph - N/A   Mostly Cloudy
10:15 AM 44.6 °F 41.4 °F 21.2 °F 39% 30.41 in 10.0 mi East 5.8 mph 16.1 mph N/A   Mostly Cloudy
10:35 AM 44.6 °F 40.2 °F 21.2 °F 39% 30.41 in 10.0 mi ENE 8.1 mph 16.1 mph N/A   Mostly Cloudy
10:55 AM 46.4 °F 43.5 °F 19.4 °F 34% 30.41 in 10.0 mi East 5.8 mph 19.6 mph N/A   Scattered Clouds
11:15 AM 46.4 °F 42.9 °F 19.4 °F 34% 30.40 in 10.0 mi East 6.9 mph - N/A   Scattered Clouds
11:35 AM 48.2 °F - 17.6 °F 30% 30.38 in 10.0 mi East 9.2 mph - N/A   Clear
11:55 AM 48.2 °F - 17.6 °F 30% 30.38 in 10.0 mi East 8.1 mph - N/A   Mostly Cloudy
12:15 PM 48.2 °F - 17.6 °F 30% 30.36 in 10.0 mi East 6.9 mph - N/A   Scattered Clouds
12:35 PM 50.0 °F - 17.6 °F 28% 30.35 in 10.0 mi NE 4.6 mph - N/A   Clear
12:55 PM 50.0 °F - 17.6 °F 28% 30.33 in 10.0 mi East 8.1 mph - N/A   Clear
1:15 PM 50.0 °F - 19.4 °F 30% 30.33 in 10.0 mi East 4.6 mph - N/A   Clear
1:35 PM 51.8 °F - 19.4 °F 28% 30.32 in 10.0 mi East 4.6 mph - N/A   Clear
1:55 PM 50.0 °F - 19.4 °F 30% 30.31 in 10.0 mi ESE 8.1 mph - N/A   Clear
2:15 PM 50.0 °F - 17.6 °F 28% 30.30 in 10.0 mi East 8.1 mph - N/A   Mostly Cloudy
2:35 PM 50.0 °F - 17.6 °F 28% 30.30 in 10.0 mi ENE 3.5 mph - N/A   Overcast
2:55 PM 50.0 °F - 19.4 °F 30% 30.30 in 10.0 mi East 5.8 mph - N/A   Overcast
3:15 PM 50.0 °F - 19.4 °F 30% 30.29 in 10.0 mi Calm Calm - N/A   Overcast
3:35 PM 50.0 °F - 19.4 °F 30% 30.31 in 10.0 mi NE 4.6 mph - N/A   Overcast
3:55 PM 50.0 °F - 19.4 °F 30% 30.29 in 10.0 mi ENE 3.5 mph - N/A   Overcast
4:15 PM 50.0 °F - 19.4 °F 30% 30.30 in 10.0 mi ENE 3.5 mph - N/A   Overcast
4:35 PM 50.0 °F - 21.2 °F 32% 30.29 in 10.0 mi NE 5.8 mph - N/A   Overcast
4:55 PM 50.0 °F - 21.2 °F 32% 30.29 in 10.0 mi Calm Calm - N/A   Mostly Cloudy
5:15 PM 50.0 °F - 21.2 °F 32% 30.29 in 10.0 mi ENE 3.5 mph - N/A   Overcast
5:35 PM 50.0 °F - 21.2 °F 32% 30.30 in 10.0 mi Calm Calm - N/A   Overcast
5:55 PM 50.0 °F - 21.2 °F 32% 30.30 in 10.0 mi Calm Calm - N/A   Overcast
6:15 PM 50.0 °F - 21.2 °F 32% 30.30 in 10.0 mi East 4.6 mph - N/A   Overcast
6:35 PM 50.0 °F - 21.2 °F 32% 30.30 in 10.0 mi ENE 4.6 mph - N/A   Overcast
6:55 PM 50.0 °F - 21.2 °F 32% 30.30 in 10.0 mi East 4.6 mph - N/A   Overcast
7:15 PM 50.0 °F - 21.2 °F 32% 30.31 in 10.0 mi Calm Calm - N/A   Overcast
7:35 PM 50.0 °F - 21.2 °F 32% 30.31 in 10.0 mi Calm Calm - N/A   Overcast
7:55 PM 48.2 °F - 21.2 °F 34% 30.31 in 10.0 mi ENE 4.6 mph - N/A   Overcast
8:15 PM 48.2 °F - 21.2 °F 34% 30.31 in 10.0 mi East 3.5 mph - N/A   Overcast
8:35 PM 48.2 °F - 23.0 °F 37% 30.31 in 10.0 mi ENE 3.5 mph - N/A Rain Light Rain
8:55 PM 46.4 °F 44.3 °F 24.8 °F 43% 30.31 in 10.0 mi ENE 4.6 mph - N/A   Overcast
9:55 PM 42.8 °F 40.1 °F 32.0 °F 66% 30.33 in 7.0 mi ESE 4.6 mph - N/A Rain Rain
10:15 PM 42.8 °F 41.1 °F 35.6 °F 76% 30.33 in 3.0 mi East 3.5 mph - N/A Rain Light Rain
10:35 PM 41.0 °F - 37.4 °F 87% 30.31 in 5.0 mi Calm Calm - N/A Rain Rain
10:55 PM 41.0 °F - 37.4 °F 87% 30.31 in 4.0 mi Calm Calm - N/A Rain Rain
11:15 PM 41.0 °F - 39.2 °F 93% 30.30 in 2.0 mi Calm Calm - N/A   Overcast
11:35 PM 41.0 °F - 37.4 °F 87% 30.29 in 5.0 mi Calm Calm - N/A Rain Rain
11:55 PM 41.0 °F - 39.2 °F 93% 30.30 in 5.0 mi Calm Calm - N/A Rain Rain